User: anonymous   Login
Location: Arrakis Observatory
(44.1122°N, 95.7153°W)
Time: 08:03:47
(UTC-05:00)
Language:

Coronas F rocket - Orbit

View from above orbital plane
View from above orbital plane
View from above satellite
View from above satellite

Ground track
Ground track

The orbit data is extracted from the following two-line orbital elements,

1 26874U 01032B   14296.12126921  .00024595  00000-0  36016-3 0  8307
2 26874 082.4748 209.0131 0011832 311.7980 048.2262 15.55346041741169
Epoch (UTC): 23 October 2014 02:54:37
Eccentricity: 0.0011832
inclination: 82.4748°
perigee height: 393 km
apogee height: 409 km
right ascension of ascending node: 209.0131°
argument of perigee: 311.7980°
revolutions per day: 15.55346041
mean anomaly at epoch: 48.2262°
orbit number at epoch: 74116

The dashed part of the orbit path shows where the satellite is in the earth's shadow,  

DLR